Point Lay, AK

12:57 AM AKDT on August 28, 2016 (GMT -0800)
Point Lay

Weather History for PPIZ - December, 2013

Change the Weather History Date:

Saturday, December 28, 2013

  Actual Average Record
Temperature  
Mean Temperature -28 °F -  
Max Temperature -24 °F -4 °F 28 °F (2014)
Min Temperature -31 °F -12 °F -42 °F (2010)
Degree Days  
Heating Degree Days 94    
Moisture  
Dew Point -34 °F    
Average Humidity 72    
Maximum Humidity 74    
Minimum Humidity 69    
Precipitation  
Precipitation 0.00 in - - ()
Sea Level Pressure  
Sea Level Pressure 30.24 in    
Wind  
Wind Speed 14 mph (ENE)    
Max Wind Speed 18 mph    
Max Gust Speed -    
Averages and records for this station are not official NWS values.
T = Trace of Precipitation, MM = Missing Value Source: NWS Daily Summary

Daily Weather History Graph

Daily Weather History Graph

Search for Another Location

Airport or City:

Trip Planner

Search our weather history database for the weather conditions in past years. The results will help you decide how hot, cold, wet, or windy it might be!

Date:

Astronomy

Dec. 31, 1969 Rise Set
Actual Time Sun does not set Sun does not set
Civil Twilight 11:39 AM AKST 4:07 PM AKST
Nautical Twilight 9:56 AM AKST 5:51 PM AKST
Astronomical Twilight 8:38 AM AKST 7:09 PM AKST
Moon 7:35 AM AKST 12:55 PM AKST
Length of Visible Light 4h 28m
Length of Day
0h 00m
Waning Crescent, 17% of the Moon is Illuminated
Dec 28
Waning Crescent
Jan 1
New
Jan 7
First Quarter
Jan 15
Full
Jan 23
Last Quarter

Hourly Weather History & Observations

Time (AKST) Temp. Windchill Dew Point Humidity Pressure Visibility Wind Dir Wind Speed Gust Speed Precip Events Conditions
12:56 AM -26.9 °F -56.2 °F -33.9 °F 69% 30.40 in - NE 18.4 mph - 0.00 in Snow Light Snow
1:56 AM -26.9 °F -52.8 °F -33.0 °F 73% 30.42 in - ENE 13.8 mph - 0.00 in   Overcast
2:56 AM -26.9 °F -51.8 °F -33.0 °F 73% 30.40 in - NE 12.7 mph - 0.00 in Snow Light Snow
3:56 AM -26.9 °F -53.8 °F -33.0 °F 73% 30.39 in - ENE 15.0 mph - 0.00 in   Overcast
4:56 AM -26.0 °F -52.6 °F -31.9 °F 73% 30.36 in - ENE 15.0 mph - 0.00 in Snow Light Snow
5:56 AM -26.0 °F -51.7 °F -33.0 °F 69% 30.34 in - NE 13.8 mph - 0.00 in Snow Light Snow
6:56 AM -26.9 °F -52.8 °F -33.0 °F 73% 30.33 in - ENE 13.8 mph - 0.00 in   Overcast
7:56 AM -26.9 °F -52.8 °F -33.0 °F 73% 30.32 in - ENE 13.8 mph - 0.00 in   Overcast
8:56 AM -26.9 °F -52.8 °F -33.0 °F 73% 30.30 in - ENE 13.8 mph - 0.00 in   Overcast
9:56 AM -26.9 °F -49.6 °F -33.0 °F 73% 30.30 in - ENE 10.4 mph - N/A   Overcast
10:56 AM -26.9 °F -53.8 °F -33.0 °F 73% 30.26 in - ENE 15.0 mph - 0.00 in   Overcast
11:56 AM -26.9 °F -51.8 °F -33.9 °F 69% 30.25 in - ENE 12.7 mph - N/A   Overcast
12:56 PM -27.9 °F -53.2 °F -33.9 °F 73% 30.24 in - ENE 12.7 mph - N/A   Overcast
1:56 PM -27.9 °F -54.2 °F -35.0 °F 69% 30.21 in - NE 13.8 mph - N/A   Mostly Cloudy
2:56 PM -28.8 °F -54.3 °F -35.0 °F 72% 30.19 in - NE 12.7 mph - N/A   Mostly Cloudy
3:56 PM -28.8 °F -53.2 °F -35.0 °F 72% 30.17 in - NE 11.5 mph - N/A   Overcast
4:56 PM -28.8 °F -53.2 °F -35.0 °F 72% 30.16 in - NE 11.5 mph - N/A   Overcast
5:56 PM -28.8 °F -52.1 °F -35.9 °F 69% 30.14 in - ENE 10.4 mph - N/A   Overcast
6:56 PM -28.8 °F -53.2 °F -35.9 °F 69% 30.13 in - ENE 11.5 mph - N/A   Overcast
7:56 PM -29.9 °F -54.6 °F - N/A% 30.12 in - ENE 11.5 mph - N/A   Mostly Cloudy
8:56 PM -31.0 °F -54.7 °F - N/A% 30.09 in - ENE 10.4 mph - N/A   Mostly Cloudy
9:09 PM -31.0 °F -53.4 °F - N/A% 30.09 in - ENE 9.2 mph - N/A   Clear
9:56 PM -31.0 °F -53.4 °F - N/A% 30.09 in - ENE 9.2 mph - N/A   Mostly Cloudy
10:56 PM -27.9 °F -50.9 °F -33.9 °F 73% 30.09 in - East 10.4 mph - N/A   Mostly Cloudy
11:56 PM -24.0 °F -46.0 °F -29.9 °F 74% 30.09 in - ENE 10.4 mph - 0.00 in   Overcast